STARLINK-30262 (57535 NORAD) Tracking and Keplerian Element Data

This shows tracking and keplerian element data for the satellite.

Feedback or suggestion? Click here.




ElementValue
Catalog57535
NameSTARLINK-30262
Epoch Orbit2396
Epoch Day12.88926423
Epoch Year2024
RAAN319.5976
Inclination43.0021
Eccentricity7.05E-05
Argument of Perigee260.0244
Mean Anonmoly100.0519
Mean Motion15.02536188
Decay Rate9.208E-05
L11 57535U 23115Q 24012.88926423 .00009208 00000+0 69579-3 0 9995
L22 57535 43.0021 319.5976 0000705 260.0244 100.0519 15.02536188 23962



Live tracking and technical data element details for STARLINK-30262 (NORAD 57535). STARLINK-30262 can be tracked NOW for your location showing map with azimuth and elevation plus other details from your city location.







IsCatalogInMostPopularTable: catalog: 57535, numindb: 26
Update: records affected: 1



GetName: 57535 STARLINK-30262

Hit Count: updated at: Thu, 29 Feb 2024 11:55:55 GMT